Miscellaneous Local Product
Issued by NWS Hastings, NE

Home | Current Version | Previous Version | Graphics & Text | Print | Product List | Glossary On
Versions: 1 2 3 4 5 6 7 8 9 10 11 12 13 14 15 16 17 18 19 20 21 22 23 24 25 26 27 28 29 30 31 32 33 34 35 36 37 38 39 40 41 42 43 44 45 46 47 48 49 50
000
AXUS43 KGID 180002
MISGRI

GID CWA HOURLY WEATHER ROUNDUP
NATIONAL WEATHER SERVICE HASTINGS NE
700 PM CDT WED SEP 17 2014

NOTE: "FAIR" INDICATES FEW OR NO CLOUDS BELOW 12,000 FEET WITH NO
SIGNIFICANT WEATHER AND/OR OBSTRUCTIONS TO VISIBILITY.

...SOUTH CENTRAL NEBRASKA...

CITY           SKY/WX    TMP DP  RH WIND       PRES   REMARKS
GRAND ISLAND   CLEAR     76  64  66 E6        29.91R
HASTINGS       CLEAR     75  60  59 SE6       29.90S
KEARNEY        CLEAR     75  63  64 E6        29.91S
ORD            PTCLDY    77  61  57 SE6       29.90R
YORK           CLEAR     73  64  73 SE6       29.91S
AURORA         CLEAR     75  63  66 SE5       29.91S
LEXINGTON      CLEAR     78  64  60 SE8       29.90S
HOLDREGE       CLEAR     75  61  60 E5        29.91R
HEBRON         CLEAR     76  62  61 E3        29.89S

...NEBRASKA PANHANDLE...

CITY           SKY/WX    TMP DP  RH WIND       PRES   REMARKS
CHADRON        MOCLDY    81  54  39 SE7       29.88F
ALLIANCE       PTCLDY    82  47  29 E6        29.92F
SCOTTSBLUFF    MOSUNNY   83  46  27 NW5       29.94R
SIDNEY         PTSUNNY   81  46  29 NE8       29.97R

...WESTERN AND NORTH CENTRAL NEBRASKA...

CITY           SKY/WX    TMP DP  RH WIND       PRES   REMARKS
VALENTINE      MOCLDY    75  55  49 E14       29.93S
AINSWORTH      HAZE      71  57  61 E5        29.95R VSB 3/4
ONEILL         MOCLDY    73  62  69 E5        29.93R
BROKEN BOW     CLEAR     78  60  53 SE9       29.91S
IMPERIAL       PTCLDY    84  58  40 E9        29.90R
NORTH PLATTE   CLEAR     74  62  66 E8        29.90R
MCCOOK         CLEAR     80  61  52 E12       29.88S

...EASTERN NEBRASKA...

CITY           SKY/WX    TMP DP  RH WIND       PRES   REMARKS
NORFOLK        CLEAR     75  62  64 E5        29.91S
SO SIOUX CITY  CLEAR     76  57  51 E6        29.90R
TEKAMAH        CLEAR     76  64  66 S3        29.90R
ALBION         PTCLDY    74  59  60 E3        29.92S
OMAHA EPPLEY   PTCLDY    77  61  57 E6        29.90R
OFFUTT AFB     CLEAR     75  67  76 SE3       29.90R
MILLARD        CLEAR     77  62  61 CALM      29.90R
LINCOLN        CLEAR     76  61  59 E7        29.91R
NEBRASKA CITY  CLEAR     76  56  49 SE3       29.90S
BEATRICE       CLEAR     75  64  66 SE6       29.90S
FALLS CITY     CLEAR     74  65  73 S5        29.89S

...NORTHERN KANSAS...

CITY           SKY/WX    TMP DP  RH WIND       PRES   REMARKS
GOODLAND       PTCLDY    79  59  50 S7        29.92F
HILL CITY      PTCLDY    81  65  58 E13       29.87R
NORTON         CLEAR     79  59  50 E9        29.88S
PHILLIPSBURG   CLEAR     81  63  54 E12       29.88R
SMITH CENTER   CLEAR     79  64  61 E14       29.88S
BELOIT         CLEAR     77  66  69 E6        29.86S
HAYS           CLEAR     82  66  57 E12       29.85R
RUSSELL        CLEAR     82  68  62 E13       29.83S
CONCORDIA      CLEAR     76  67  73 E7        29.88S
SALINA         CLEAR     83  68  60 E10       29.84S
TOPEKA         CLEAR     73  68  84 E6        29.89R



USA.gov is the U.S. government's official web portal to all federal, state and local government web resources and services.